Other Public Products
Issued by NWS Grand Forks, ND

Home | Current Version | Previous Version | Graphics & Text | Print | Product List | Glossary On
Versions: 1 2 3 4 5 6 7 8 9 10 11 12 13 14 15 16 17 18 19 20 21 22 23 24 25 26 27 28 29 30 31 32 33 34 35 36 37 38 39 40 41 42 43 44 45 46 47 48 49 50
000
FPUS83 KFGF 292110
OPUFGF
PRAIRIE TO PINES WEATHER ROUNDUP
NATIONAL WEATHER SERVICE EASTERN NORTH DAKOTA/GRAND FORKS ND
400 PM CDT SAT AUG 29 2015

 **SATELLITE DATA USED TO AUGMENT SKY COVER AT AUTOMATED STATIONS**
 *****  WEATHER ACROSS EASTERN NORTH DAKOTA  *****

CITY           SKY/WX    TMP DP  RH WIND       PRES   REMARKS
GRAND FORKS    FAIR      80  68  66 S9G18     29.86F
GRAND FORKS AF FAIR      81  69  67 S13       29.86F
GRAND CITY NWS   N/A     79 N/A N/A S13         N/A
BUXTON         NOT AVBL
DEVILS LAKE    FAIR      82  64  54 SE12      29.85F
FARGO          FAIR      84  68  58 S14       29.89F
WAHPETON ARPT  FAIR      79  63  57 S12       29.93F
$$

 *****  WEATHER ACROSS CENTRAL AND WESTERN NORTH DAKOTA  *****

CITY           SKY/WX    TMP DP  RH WIND       PRES   REMARKS
JAMESTOWN      FAIR      84  70  62 VRB7      29.89F
BISMARCK       PTSUNNY   92  59  33 SE13      29.87F HAZE    HX  91
MINOT          PTSUNNY   94  49  21 S12       29.82F HAZE    HX  90
MINOT AFB      FAIR      92  51  24 SW9       29.80F
GARRISON         N/A     93  55  27 S14       29.85F HX  91
WILLISTON      FAIR      89  50  26 S3        29.83F HAZE
DICKINSON      FAIR      99  41  13 SW13G24   29.86F HX  94
HETTINGER      FAIR      96  44  16 S10G20    29.92F HX  92
$$

 *****  OTHER OBSERVATIONS NORTHEAST NORTH DAKOTA  *****

CITY           SKY/WX    TMP DP  RH WIND       PRES   REMARKS
WALHALLA       FAIR      77  77 100 MISG      29.83F
LANGDON        FAIR      86  64  48 SW15      29.87S
CAVALIER       FAIR      77  70  78 S7        29.84S
GRAFTON        FAIR      79  72  78 S14       29.84F
CANDO          NOT AVBL
FORT TOTTEN      N/A     81  66  60 S6        29.95S
ROLLA            N/A     86  57  37 SW14G21   29.85F
RUGBY          FAIR      88  59  37 S10       29.84F HAZE
 ***** THE ABOVE OBSERVATIONS ARE NON NWS ARE NOT QUALITY
        CONTROLLED AND MAY MIS-REPORT RAIN FOR SNOW...
$$

 *****  OTHER OBSERVATIONS SOUTHEAST NORTH DAKOTA *****

CITY           SKY/WX    TMP DP  RH WIND       PRES   REMARKS
COOPERSTOWN    NOT AVBL
VALLEY CITY    FAIR      79  72  78 S8        29.91F
OAKES            N/A     81  75  83 S9        29.92F
GWINNER        FAIR      81  70  69 SW9       29.92F
SHEYENNE NWR     N/A     82  67  60 SW9       29.95S
BUFFALO        NOT AVBL
WYNDMERE         N/A     82  68  61 S9          N/A
 ***** THE ABOVE OBSERVATIONS ARE NON NWS ARE NOT QUALITY
       CONTROLLED AND MAY MIS-REPORT RAIN FOR SNOW...
$$

  *****  WEATHER ACROSS NORTHERN MINNESOTA  *****

CITY           SKY/WX    TMP DP  RH WIND       PRES   REMARKS
FLAG ISLAND    CLOUDY    70  66  88 S12       29.89F
WARROAD        PTSUNNY   72  66  83 S8        29.91F
ROSEAU         FAIR      75  68  78 SE8       29.90F
HALLOCK        FAIR      75  70  83 S14       29.85F
THF RVR FALLS  FAIR     N/A N/A N/A S12       29.90F
HALSTAD        NOT AVBL
FOSSTON        FAIR      79  64  61 S13       29.94S
BAUDETTE       CLOUDY    72  65  78 S8        29.93F
WASKISH        FAIR      75  68  78 SE5       29.94F
CROOKSTON      FAIR      81  68  65 S14       29.89F
$$
  *****  WEATHER ACROSS CENTRAL AND WEST MINNESOTA  *****

CITY           SKY/WX    TMP DP  RH WIND       PRES   REMARKS
BEMIDJI        FAIR      76  67  71 S9        29.96S
PARK RAPIDS    FAIR      76  64  66 S9        29.98S
WADENA         FAIR      75  63  64 S12       29.98F
DETROIT LAKES  FAIR      77  64  65 S10       29.97S
MOORHEAD       FAIR      81  66  61 S12G17    29.92S
FERGUS FALLS   FAIR      75  64  69 S10       29.95S
ELBOW LAKE     FAIR      74  64  69 S12       29.97F
MORRIS MN      FAIR      77  64  65 S13       29.97F
STAPLES        FAIR      73  61  64 S9        29.99F
WHEATON        FAIR      77  68  73 S8        29.96S
$$
  *****  WEATHER ELSEWHERE ACROSS MINNESOTA  *****

CITY           SKY/WX    TMP DP  RH WIND       PRES   REMARKS
DULUTH         CLOUDY    73  60  63 SW10      30.01F
INTRNTL FALLS  CLOUDY    71  65  81 VRB6      29.95F
ELY            PTSUNNY   73  64  73 SW5       29.99F
CLOQUET        CLOUDY    72  61  68 S6        30.02F
BRAINERD       FAIR      74  62  66 S9        30.00F
HIBBING        CLOUDY    72  62  71 VRB3      29.99F
ALEXANDRIA     FAIR      73  61  65 S13       30.01F
SAINT CLOUD    FAIR      73  62  68 S9        30.02F
MINNEAPOLIS    PTSUNNY   73  61  65 SE3       30.03F
$$

  *****  WEATHER ACROSS SOUTH DAKOTA  *****

CITY           SKY/WX    TMP DP  RH WIND       PRES   REMARKS
SIOUX FALLS    CLOUDY    74  64  71 S10       30.02F
BROOKINGS      FAIR      75  64  69 S9        30.03S
WATERTOWN      FAIR      79  66  64 S12       29.98F
HURON          FAIR      83  69  62 S13       29.95S
SISSETON         N/A     83  66  56 SW9       29.92F
ABERDEEN       FAIR      84  71  65 S8        29.92F
MITCHELL       FAIR      81  69  67 S13       29.98F
PIERRE         FAIR      93  60  33 S13       29.90F HX  93
MOBRIDGE       FAIR      90  67  46 S10       29.89F HX  93
RAPID CITY     FAIR      93  49  22 S17       29.97F HX  90
$$

  *****  SOME WEATHER IN NEARBY STATES *****

CITY           SKY/WX    TMP DP  RH WIND       PRES   REMARKS
GLASGOW MT     HAZE      90  42  18 SE9       29.81F VSB 3/4
GREAT FALLS MT FAIR      89  40  17 SE3       29.79F HAZE
CHEYENNE WY    FAIR      84  35  17 VRB7      30.23F
SCOTTSBLUFF NE FAIR      93  40  15 S9        30.07F
OMAHA NE       CLOUDY    71  62  73 W5        30.05F
DES MOINES IA  CLOUDY    72  63  73 N7        30.03S
DAVENPORT IA   CLOUDY    73  67  81 N7        30.01R
CHICAGO IL     CLOUDY    70  66  87 NW6       30.01R
EAU CLAIRE WI  FAIR      70  60  70 S6        30.05S
LA CROSSE WI   CLOUDY    74  62  66 N6        30.04S
$$

  *****  SOME NATIONAL WEATHER *****

CITY           SKY/WX    TMP DP  RH WIND       PRES   REMARKS
LA GUARDIA NY  FAIR      82  58  43 S15       30.10F
RALEIGH NC     PTSUNNY   85  58  39 CALM      30.15F
ATLANTA GA     PTSUNNY   79  67  66 SE7       30.13F
NEW ORLEANS LA FAIR      90  66  45 N3        30.00F HX  92
OKLAHOMA CITY  FAIR      91  65  41 N7        29.98F HX  93
ALBUQUERQUE NM FAIR      88  46  23 VRB6      30.21F
SALT LAKE CITY PTSUNNY   95  40  14 SE18G26   29.99F HX  91
LOS ANGELES CA FAIR      82  65  56 W13       29.88F
BOISE ID       FAIR      92  38  15 VRB6      29.83F
SEATTLE WA     PTSUNNY   70  56  61 S24G36    29.73R
$$

*** WEATHER ACROSS MANITOBA...SASKATCHEWAN AND ONTARIO ***
                ***ONTARIO***

CITY           SKY/WX    TMP DP  RH WIND       PRES   REMARKS
GERALDTON      PTSUNNY   72  64  78 SW6       29.95F FOG
THUNDER BAY    CLOUDY    75  64  69 W5        29.96S
SIOUX LOOKOUT  MOSUNNY   79  54  41 SW7       29.92F
TORONTO        CLOUDY    73  61  64 SE7       30.09S
BIG TROUT LK   SUNNY     81  59  47 W8        29.74S
PICKLE LAKE    MOSUNNY   81  59  47 SW9       29.88F
DRYDEN         SUNNY     79  59  50 S8        29.92F
KENORA         CLOUDY    72  66  83 S8        29.91F
$$
                *** MANITOBA***

CITY           SKY/WX    TMP DP  RH WIND       PRES   REMARKS
BRANDON        MOSUNNY   86  57  37 S10       29.77F HAZE
DAUPHIN        SUNNY     84  61  45 SW12      29.69F
ISLAND LAKE    CLOUDY    75  59  57 S8        29.72F
PILOT MOUND      N/A     82  57  42 S13         N/A
THE PAS        CLOUDY    81  59  47 SW14G24   29.55F
THOMPSON       CLOUDY    70  61  73 NE7       29.61F
WINNIPEG       CLOUDY    73  68  83 S16       29.81F
LYNN LAKE      CLOUDY    70  50  49 MISG      29.65R
CHURCHILL      CLOUDY    50  48  93 NE17      29.73S FOG
GILLAM         LGT RAIN  68  59  73 SE3       29.68F
$$
                ***SASKATCHEWAN***

CITY           SKY/WX    TMP DP  RH WIND       PRES   REMARKS
ESTEVAN        NOT AVBL
KINDERSLEY     PTSUNNY   82  43  24 S9        29.74F
LLOYDMINSTER   PTSUNNY   79  45  29 VRB2      29.71F
PRINCE ALBERT  PTSUNNY   81  59  47 W13       29.66R SMOKE
REGINA         PTSUNNY   86  48  26 W15       29.79S SMOKE


USA.gov is the U.S. government's official web portal to all federal, state and local government web resources and services.